| time (UTC) | temp C | wind direction | speed KPH | gust KPH | rain 1hr cm | rain 24hr cm | rain mn cm | humidity % | barometer mb |
| 20260831041544 | 21 | 0 | 0.0 | 0.0 | 0.00 | 0.00 | 0.00 | 53 | 1009.8 |
| 20260831040053 | 22 | 0 | 0.0 | 0.0 | 0.00 | 0.00 | 0.00 | 50 | 1009.6 |
| 20260831034551 | 23 | 0 | 0.0 | 0.0 | 0.00 | 0.00 | 0.00 | 45 | 1009.4 |
| 20260831033101 | 24 | 0 | 0.0 | 1.6 | 0.00 | 0.00 | 0.00 | 45 | 1009.3 |
| 20260831031540 | 25 | 0 | 0.0 | 0.0 | 0.00 | 0.00 | 0.00 | 44 | 1009.2 |
| 20260831030042 | 26 | 0 | 0.0 | 0.0 | 0.00 | 0.00 | 0.00 | 42 | 1009.1 |
| 20260831024544 | 28 | 0 | 0.0 | 1.6 | 0.00 | 0.00 | 0.00 | 38 | 1008.9 |
| 20260831023040 | 30 | 0 | 0.0 | 1.6 | 0.00 | 0.00 | 0.00 | 30 | 1008.8 |
| 20260831021541 | 31 | 0 | 0.0 | 3.2 | 0.00 | 0.00 | 0.00 | 27 | 1008.8 |
| 20260831020105 | 31 | 0 | 0.0 | 6.4 | 0.00 | 0.00 | 0.00 | 27 | 1008.9 |
| 20260831014543 | 31 | 175 | 1.6 | 6.4 | 0.00 | 0.00 | 0.00 | 26 | 1008.8 |
| 20260831013042 | 32 | 0 | 0.0 | 3.2 | 0.00 | 0.00 | 0.00 | 24 | 1008.8 |
| 20260831011550 | 32 | 0 | 0.0 | 4.8 | 0.00 | 0.00 | 0.00 | 23 | 1009.0 |
| 20260831010045 | 32 | 175 | 1.6 | 6.4 | 0.00 | 0.00 | 0.00 | 24 | 1009.1 |
| 20260831004542 | 32 | 0 | 0.0 | 6.4 | 0.00 | 0.00 | 0.00 | 23 | 1009.1 |
| 20260831003047 | 32 | 0 | 1.6 | 9.7 | 0.00 | 0.00 | 0.00 | 23 | 1009.1 |
| 20260831001544 | 32 | 0 | 0.0 | 4.8 | 0.00 | 0.00 | 0.00 | 23 | 1009.2 |
| 20260831000046 | 33 | 0 | 1.6 | 11.3 | 0.00 | 0.00 | 0.00 | 25 | 1009.3 |
| 20260830234550 | 33 | 175 | 4.8 | 12.9 | 0.00 | 0.00 | 0.00 | 24 | 1009.3 |
| 20260830233047 | 32 | 0 | 1.6 | 9.7 | 0.00 | 0.00 | 0.00 | 23 | 1009.4 |
| 20260830231543 | 33 | 175 | 1.6 | 11.3 | 0.00 | 0.00 | 0.00 | 24 | 1009.7 |
| 20260830230051 | 33 | 175 | 1.6 | 9.7 | 0.00 | 0.00 | 0.00 | 26 | 1009.8 |
| 20260830224549 | 33 | 175 | 1.6 | 9.7 | 0.00 | 0.00 | 0.00 | 25 | 1010.0 |
| 20260830223045 | 33 | 175 | 1.6 | 11.3 | 0.00 | 0.00 | 0.00 | 23 | 1010.1 |
| 20260830221543 | 33 | 0 | 1.6 | 12.9 | 0.00 | 0.00 | 0.00 | 24 | 1010.2 |
| 20260830220056 | 33 | 175 | 0.0 | 14.5 | 0.00 | 0.00 | 0.00 | 26 | 1010.5 |
| 20260830214547 | 33 | 173 | 1.6 | 14.5 | 0.00 | 0.00 | 0.00 | 26 | 1010.8 |
| 20260830213045 | 33 | 0 | 1.6 | 9.7 | 0.00 | 0.00 | 0.00 | 25 | 1011.1 |
| 20260830211552 | 32 | 0 | 4.8 | 11.3 | 0.00 | 0.00 | 0.00 | 27 | 1011.3 |
| 20260830210050 | 32 | 171 | 1.6 | 9.7 | 0.00 | 0.00 | 0.00 | 27 | 1011.4 |
| 20260830204542 | 32 | 171 | 1.6 | 12.9 | 0.00 | 0.00 | 0.00 | 29 | 1011.4 |
| 20260830203051 | 31 | 0 | 0.0 | 9.7 | 0.00 | 0.00 | 0.00 | 30 | 1011.6 |
| 20260830201550 | 31 | 171 | 1.6 | 9.7 | 0.00 | 0.00 | 0.00 | 33 | 1011.7 |
| 20260830200047 | 30 | 171 | 3.2 | 9.7 | 0.00 | 0.00 | 0.00 | 33 | 1011.8 |
| 20260830194544 | 30 | 0 | 1.6 | 9.7 | 0.00 | 0.00 | 0.00 | 34 | 1012.0 |
| 20260830193049 | 29 | 171 | 1.6 | 9.7 | 0.00 | 0.00 | 0.00 | 35 | 1012.1 |
| 20260830191557 | 29 | 171 | 1.6 | 8.0 | 0.00 | 0.00 | 0.00 | 36 | 1012.1 |
| 20260830190059 | 29 | 0 | 1.6 | 9.7 | 0.00 | 0.00 | 0.00 | 37 | 1012.4 |
| 20260830184554 | 28 | 171 | 1.6 | 8.0 | 0.00 | 0.00 | 0.00 | 38 | 1012.5 |
| 20260830183049 | 27 | 0 | 0.0 | 6.4 | 0.00 | 0.00 | 0.00 | 40 | 1012.7 |
| 20260830181544 | 28 | 0 | 0.0 | 6.4 | 0.00 | 0.00 | 0.00 | 39 | 1012.7 |
| 20260830180044 | 27 | 171 | 0.0 | 6.4 | 0.00 | 0.00 | 0.00 | 40 | 1012.8 |
| 20260830174542 | 27 | 0 | 0.0 | 8.0 | 0.00 | 0.00 | 0.00 | 40 | 1012.8 |
| 20260830173104 | 26 | 0 | 0.0 | 6.4 | 0.00 | 0.00 | 0.00 | 42 | 1012.9 |
| 20260830171551 | 26 | 0 | 0.0 | 6.4 | 0.00 | 0.00 | 0.00 | 45 | 1012.9 |
| 20260830170045 | 25 | 0 | 0.0 | 8.0 | 0.00 | 0.00 | 0.00 | 46 | 1012.9 |
| 20260830164550 | 23 | 0 | 0.0 | 6.4 | 0.00 | 0.00 | 0.00 | 51 | 1013.0 |
| 20260830163045 | 22 | 0 | 0.0 | 3.2 | 0.00 | 0.00 | 0.00 | 54 | 1012.8 |
| 20260830161555 | 21 | 171 | 0.0 | 6.4 | 0.00 | 0.00 | 0.00 | 57 | 1012.9 |
| 20260830160043 | 20 | 0 | 0.0 | 3.2 | 0.00 | 0.00 | 0.00 | 58 | 1012.8 |
| 20260830154550 | 19 | 0 | 0.0 | 6.4 | 0.00 | 0.00 | 0.00 | 61 | 1012.9 |
| 20260830153046 | 18 | 171 | 0.0 | 6.4 | 0.00 | 0.00 | 0.00 | 64 | 1013.0 |
| 20260830151559 | 16 | 0 | 0.0 | 0.0 | 0.00 | 0.00 | 0.00 | 72 | 1013.0 |
| 20260830150049 | 13 | 0 | 0.0 | 0.0 | 0.00 | 0.00 | 0.00 | 81 | 1012.8 |
| 20260830144555 | 12 | 0 | 0.0 | 0.0 | 0.00 | 0.00 | 0.00 | 83 | 1012.7 |
| 20260830143044 | 11 | 0 | 0.0 | 0.0 | 0.00 | 0.00 | 0.00 | 85 | 1012.6 |
| 20260830141549 | 10 | 0 | 0.0 | 0.0 | 0.00 | 0.00 | 0.00 | 86 | 1012.4 |
| 20260830140050 | 10 | 0 | 0.0 | 0.0 | 0.00 | 0.00 | 0.00 | 86 | 1012.2 |
| 20260830134554 | 10 | 0 | 0.0 | 0.0 | 0.00 | 0.00 | 0.00 | 85 | 1012.0 |
| 20260830133047 | 11 | 0 | 0.0 | 0.0 | 0.00 | 0.00 | 0.00 | 85 | 1012.0 |
| 20260830131556 | 11 | 0 | 0.0 | 0.0 | 0.00 | 0.00 | 0.00 | 85 | 1011.9 |
| 20260830130043 | 11 | 0 | 0.0 | 0.0 | 0.00 | 0.00 | 0.00 | 84 | 1011.9 |
| 20260830124550 | 11 | 0 | 0.0 | 0.0 | 0.00 | 0.00 | 0.00 | 83 | 1011.8 |
| 20260830123049 | 11 | 0 | 0.0 | 0.0 | 0.00 | 0.00 | 0.00 | 83 | 1011.6 |
| 20260830121542 | 11 | 0 | 0.0 | 0.0 | 0.00 | 0.00 | 0.00 | 82 | 1011.5 |
| 20260830120050 | 12 | 0 | 0.0 | 0.0 | 0.00 | 0.00 | 0.00 | 82 | 1011.5 |
| 20260830114557 | 12 | 0 | 0.0 | 0.0 | 0.00 | 0.00 | 0.00 | 82 | 1011.6 |
| 20260830113044 | 12 | 0 | 0.0 | 0.0 | 0.00 | 0.00 | 0.00 | 82 | 1011.7 |
| 20260830111542 | 12 | 0 | 0.0 | 0.0 | 0.00 | 0.00 | 0.00 | 82 | 1011.7 |
| 20260830110052 | 13 | 0 | 0.0 | 0.0 | 0.00 | 0.00 | 0.00 | 81 | 1011.6 |
| 20260830104548 | 13 | 0 | 0.0 | 0.0 | 0.00 | 0.00 | 0.00 | 80 | 1011.7 |
| 20260830103042 | 13 | 0 | 0.0 | 0.0 | 0.00 | 0.00 | 0.00 | 78 | 1011.6 |
| 20260830101552 | 13 | 0 | 0.0 | 0.0 | 0.00 | 0.00 | 0.00 | 77 | 1011.6 |
| 20260830100050 | 13 | 0 | 0.0 | 0.0 | 0.00 | 0.00 | 0.00 | 76 | 1011.5 |
| 20260830094543 | 15 | 0 | 0.0 | 0.0 | 0.00 | 0.00 | 0.00 | 75 | 1011.6 |
| 20260830093050 | 15 | 0 | 0.0 | 0.0 | 0.00 | 0.00 | 0.00 | 72 | 1011.4 |
| 20260830091549 | 15 | 0 | 0.0 | 0.0 | 0.00 | 0.00 | 0.00 | 71 | 1011.5 |
| 20260830090043 | 15 | 0 | 0.0 | 0.0 | 0.00 | 0.00 | 0.00 | 70 | 1011.5 |
| 20260830084545 | 16 | 0 | 0.0 | 0.0 | 0.00 | 0.00 | 0.00 | 69 | 1011.5 |
| 20260830083051 | 16 | 0 | 0.0 | 0.0 | 0.00 | 0.00 | 0.00 | 66 | 1011.5 |
| 20260830081545 | 17 | 0 | 0.0 | 0.0 | 0.00 | 0.00 | 0.00 | 66 | 1011.4 |
| 20260830080044 | 17 | 0 | 0.0 | 1.6 | 0.00 | 0.00 | 0.00 | 63 | 1011.5 |
| 20260830074549 | 18 | 0 | 0.0 | 8.0 | 0.00 | 0.00 | 0.00 | 61 | 1011.4 |
| 20260830073049 | 18 | 0 | 0.0 | 0.0 | 0.00 | 0.00 | 0.00 | 64 | 1011.4 |
| 20260830071543 | 18 | 171 | 1.6 | 6.4 | 0.00 | 0.00 | 0.00 | 65 | 1011.5 |
| 20260830070052 | 18 | 0 | 0.0 | 0.0 | 0.00 | 0.00 | 0.00 | 59 | 1011.4 |
| 20260830064604 | 18 | 0 | 0.0 | 1.6 | 0.00 | 0.00 | 0.00 | 60 | 1011.4 |
| 20260830063044 | 18 | 0 | 0.0 | 3.2 | 0.00 | 0.00 | 0.00 | 60 | 1011.5 |
| 20260830061542 | 18 | 0 | 0.0 | 0.0 | 0.00 | 0.00 | 0.00 | 58 | 1011.6 |
| 20260830060055 | 18 | 0 | 0.0 | 0.0 | 0.00 | 0.00 | 0.00 | 56 | 1011.6 |
| 20260830054548 | 20 | 0 | 0.0 | 0.0 | 0.00 | 0.00 | 0.00 | 53 | 1011.7 |
| 20260830053043 | 20 | 0 | 0.0 | 0.0 | 0.00 | 0.00 | 0.00 | 51 | 1011.6 |
| 20260830051551 | 21 | 0 | 0.0 | 3.2 | 0.00 | 0.00 | 0.00 | 49 | 1011.6 |
| 20260830050050 | 21 | 171 | 0.0 | 6.4 | 0.00 | 0.00 | 0.00 | 48 | 1011.5 |
| 20260830044543 | 20 | 0 | 0.0 | 0.0 | 0.00 | 0.00 | 0.00 | 48 | 1011.5 |
| 20260830043044 | 21 | 0 | 0.0 | 0.0 | 0.00 | 0.00 | 0.00 | 49 | 1011.4 |